Hamilton Airport, Ontario

12:47 AM EST on November 18, 2017 (GMT -0500)
Hamilton Airport

Weather History for CYHM - November, 2013

Change the Weather History Date:

Monday, November 25, 2013

  Actual Average Record
Temperature  
Mean Temperature 24 °F -  
Max Temperature 33 °F 35 °F 60 °F (2001)
Min Temperature 14 °F 22 °F 14 °F (2005)
Degree Days  
Heating Degree Days 42    
Moisture  
Dew Point 17 °F    
Average Humidity 65    
Maximum Humidity 93    
Minimum Humidity 41    
Precipitation  
Precipitation 0.00 in 0.11 in - ()
Sea Level Pressure  
Sea Level Pressure 30.22 in    
Wind  
Wind Speed 13 mph ()    
Max Wind Speed 26 mph    
Max Gust Speed 34 mph    
Visibility 13.6 miles    
Events Snow    
Averages and records for this station are not official NWS values.
T = Trace of Precipitation, MM = Missing Value Source: Averaged Metar Reports

Daily Weather History Graph

Daily Weather History Graph

Search for Another Location

Airport or City:

Trip Planner

Search our weather history database for the weather conditions in past years. The results will help you decide how hot, cold, wet, or windy it might be!

Date:

Astronomy

Nov. 25, 2013 Rise Set
Actual Time 7:25 AM EST 4:48 PM EST
Civil Twilight 6:53 AM EST 5:19 PM EST
Nautical Twilight 6:18 AM EST 5:54 PM EST
Astronomical Twilight 5:44 AM EST 6:28 PM EST
Moon No Moon Rise 12:35 PM EST (11/25)
Length of Visible Light 10h 25m
Length of Day
9h 22m
Waning Gibbous, 51% of the Moon is Illuminated
Nov 25
Waning Gibbous
Nov 25
Last Quarter
Dec 2
New
Dec 9
First Quarter
Dec 17
Full

Hourly Weather History & Observations

Time (EST) Temp. Windchill Dew Point Humidity Pressure Visibility Wind Dir Wind Speed Gust Speed Precip Events Conditions
12:00 AM 15.8 °F 5.1 °F 8.6 °F 73% 30.41 in 15.0 mi SW 8.1 mph - N/A   Mostly Cloudy
1:00 AM 17 °F - 8 °F 56% 30.40 in 15 mi WSW 9.2 mph - -   Scattered Clouds
1:00 AM 15.8 °F 4.2 °F 8.6 °F 73% 30.40 in 15.0 mi WSW 9.2 mph - N/A   Mostly Cloudy
2:00 AM 17.6 °F 6.4 °F 8.6 °F 68% 30.39 in 15.0 mi WSW 9.2 mph - N/A   Scattered Clouds
3:00 AM 19.4 °F 6.6 °F 8.6 °F 63% 30.39 in 15.0 mi WSW 12.7 mph - N/A   Mostly Cloudy
4:00 AM 19.4 °F 6.6 °F 10.4 °F 68% 30.36 in 15.0 mi WSW 12.7 mph - N/A   Mostly Cloudy
5:00 AM 21.2 °F 7.8 °F 12.2 °F 68% 30.34 in 15.0 mi WSW 15.0 mph 20.7 mph N/A   Overcast
6:00 AM 23.0 °F 9.6 °F 14.0 °F 68% 30.33 in 15.0 mi WSW 16.1 mph - N/A   Overcast
7:00 AM 23 °F - 14 °F 57% 30.33 in 15 mi WSW 17.3 mph - -   Overcast
7:00 AM 23.0 °F 8.3 °F 14.0 °F 68% 30.32 in 15.0 mi WSW 19.6 mph - N/A   Overcast
8:00 AM 21.2 °F 8.9 °F 14.0 °F 74% 30.31 in 15.0 mi SW 12.7 mph - N/A   Mostly Cloudy
9:00 AM 24.8 °F 11.9 °F 17.6 °F 74% 30.29 in 15.0 mi SW 16.1 mph - N/A   Mostly Cloudy
10:00 AM 30.2 °F 17.1 °F 17.6 °F 60% 30.26 in 15.0 mi SW 21.9 mph - N/A   Mostly Cloudy
11:00 AM 30.2 °F 18.1 °F 21.2 °F 69% 30.24 in 15.0 mi SSW 18.4 mph 26.5 mph N/A   Mostly Cloudy
12:00 PM 30.2 °F 15.9 °F 19.4 °F 64% 30.21 in 15.0 mi SW 26.5 mph 34.5 mph N/A   Mostly Cloudy
1:00 PM 32 °F - 20 °F 48% 30.16 in 15 mi SW 23.0 mph - -   Partly Cloudy
1:00 PM 32.0 °F 19.2 °F 19.4 °F 60% 30.16 in 15.0 mi SW 23.0 mph 31.1 mph N/A   Mostly Cloudy
2:00 PM 32.0 °F 20.8 °F 19.4 °F 60% 30.13 in 15.0 mi SW 17.3 mph 31.1 mph N/A   Overcast
3:00 PM 32.0 °F 20.5 °F 19.4 °F 60% 30.12 in 15.0 mi SSW 18.4 mph 26.5 mph N/A   Overcast
4:00 PM 32.0 °F 20.8 °F 19.4 °F 60% 30.11 in 15.0 mi SSW 17.3 mph 25.3 mph N/A   Overcast
5:00 PM 32.0 °F 20.8 °F 19.4 °F 60% 30.10 in 15.0 mi SSW 17.3 mph 24.2 mph N/A   Overcast
6:00 PM 33.8 °F 22.5 °F 19.4 °F 56% 30.08 in 15.0 mi SW 19.6 mph 29.9 mph N/A   Overcast
6:28 PM 33.8 °F 22.2 °F 19.4 °F 56% 30.07 in 15.0 mi SW 20.7 mph 28.8 mph N/A Snow Light Snow Showers
7:00 PM 33 °F - 18 °F 41% 30.07 in 15 mi SW 21.9 mph - - Snow Light Snow Showers
7:00 PM 33.8 °F 21.9 °F 17.6 °F 52% 30.07 in 15.0 mi SW 21.9 mph 29.9 mph N/A Snow Light Snow Showers
8:00 PM 33.8 °F 21.9 °F 19.4 °F 56% 30.08 in 15.0 mi SW 21.9 mph 29.9 mph N/A Snow Light Snow Showers
9:00 PM 30.2 °F 19.3 °F 26.6 °F 86% 30.10 in 2.0 mi SW 15.0 mph 24.2 mph N/A Snow Light Snow Showers
9:23 PM 30.2 °F 21.3 °F 26.6 °F 86% 30.09 in 5.0 mi WSW 10.4 mph 18.4 mph N/A Snow Light Snow Showers
10:00 PM 28.4 °F 15.8 °F 26.6 °F 93% 30.09 in 5.0 mi WSW 18.4 mph 24.2 mph N/A Snow Light Snow Showers
11:00 PM 30.2 °F 19.3 °F 26.6 °F 86% 30.10 in 6.0 mi SW 15.0 mph - N/A Snow Light Snow Showers